Location: Couloutre
(47.4081°N, 3.2259°E)
Time: 08:57:49
(UTC+00:00)

Meteor 2-9 - Pass Details

Date: 27 February 2020
Orbit: 802 x 879 km, 81.2° (Epoch: 27 March)

Event Time Altitude Azimuth Distance (km) Brightness Sun altitude
Rises 19:20:17 0° 181° (S) 3,316 7.7 -19.7°
Reaches altitude 10° 19:22:40 10° 179° (S) 2,383 6.9 -20.1°
Maximum altitude 19:27:59 68° 98° (E) 867 4.5 -21.0°
Drops below altitude 10° 19:33:20 10° 16° (NNE) 2,393 7.0 -21.8°
Sets 19:35:44 0° 14° (NNE) 3,331 7.8 -22.2°
